Probability
0 0 0 0 0 0 0 0 0 0 0 0 0 0 0 0 0 0 0 0 0 0 0 0 0 0 0 0 0 0 0 0 0 0 0 0 0 0 0 0 0 0 0 0
0 0 0 0 0 0 0 0 0 0 0 0 0 0 0 0 0 0 0 0 0 0 0 0 0 0 0 0 0 0 0 0 0 0 0 0 0 0 0 0 0 0 0 0
0 0 0 0 0 0 0 0 0 0 0 0 0 0 0 0 0 0 0 0 0 0 0 0 0 0 0 0 0 0 0 0 0 0 0 0 0 0 0 0 0 0 0 0
0 0 0 0 0 0 0 0 0 0 0 0 0 0 0 0 0 0 0 0 0 0 0 0 0 0 0 0 0 0 0 0 0 0 0 0 0 0 0 0 0 0 0 0
0 0 0 0 0 0 0 0 0 0 0 0 0 0 0 0 0 0 0 0 0 0 0 0 0 0 0 0 0 0 0 0 0 0 0 0 0 0 0 0 0 0 0 0
0 0 0 0 0 0 0 0 0 0 0 0 0 0 0 0 0 0 0 0 0 0 0 0 0 0 0 0 0 0 0 0 0 0 0 0 0 0 0 0 0 0 0 0
0 0 0 0 0 0 0 0 0 0 0 0 0 0 0 0 0 0 0 0 0 0 0 0 0 0 0 0 0 0 0 0 0 0 0 0 0 0 0 0 0 0 0 0
0 0 0 0 0 0 0 0 0 0 0 0 0 0 0 0 0 0 0 0 0 0 0 0 0 0 0 0 0 0 0 0 0 0 0 0 0 0 0 0 0 0 0 0
0 0 0 0 0 0 0 0 0 0 0 0 0 0 0 0 0 0 0 0 0 0 0 0 0 0 0 0 0 0 0 0 0 0 0 0 0 0 0 0 0 0 0 0
0 0 0 0 0 0 0 0 0 0 0 0 0 0 0 0 0 0 0 0 0 0 0 0 0 0 0 0 0 0 0 0 0 0 0 0 0 0 0 0 0 0 0 0
0 0 0 0 0 0 0 0 0 0 0 0 0 0 0 0 0 0 0 0 0 0 0 0 0 0 0 0 0 0 0 0 0 0 0 0 0 0 0 0 0 0 0 0
0 0 0 0 0 0 0 0 0 0 0 0 0 0 0 0 0 0 0 0 0 0 0 0 0 0 0 0 0 0 0 0 0 0 0 0 0 0 0 0 0 0 0 0
0 0 0 0 0 0 0 0 0 0 0 0 0 0 0 0 0 0 0 0 0 0 0 0 0 0 0 0 0 0 0 0 0 0 0 0 0 0 0 0 0 0 0 0
0 0 0 0 0 0 0 0 0 0 0 0 0 0 0 0 0 0 0 0 0 0 0 0 0 0 0 0 0 0 0 0 0 0 0 0 0 0 0 0 0 0 0 0
0 0 0 0 0 0 0 0 0 0 0 0 0 0 0 0 0 0 0 0 0 0 0 0 0 0 0 0 0 0 0 0 0 0 0 0 0 0 0 0 0 0 0 0
0 0 0 0 0 0 0 0 0 0 0 0 0 0 0 0 0 0 0 0 0 0 0 0 0 0 0 0 0 0 0 0 0 0 0 0 0 0 0 0 0 0 0 0
0 0 0 0 0 0 0 0 0 0 0 0 0 0 0 0 0 0 0 0 0 0 0 0 0 0 0 0 0 0 0 0 0 0 0 0 0 0 0 0 0 0 0 0
0 0 0 0 0 0 0 0 0 0 0 0 0 0 0 0 0 0 0 0 0 0 0 0 0 0 0 0 0 0 0 0 0 0 0 0 0 0 0 0 0 0 0 0
0 0 0 0 0 0 0 0 0 0 0 0 0 0 0 0 0 0 0 0 0 0 0 0 0 0 0 0 0 0 0 0 0 0 0 0 0 0 0 0 0 0 0 0
0 0 0 0 0 0 0 0 0 0 0 0 0 0 0 0 0 0 0 0 0 0 0 0 0 0 0 0 0 0 0 0 0 0 0 0 0 0 0 0 0 0 0 0
0 0 0 0 0 0 0 0 0 0 0 0 0 0 0 0 0 0 0 0 0 0 0 0 0 0 0 0 0 0 0 0 0 0 0 0 0 0 0 0 0 0 0 0
0 0 0 0 0 0 0 0 0 0 0 0 0 0 0 0 0 0 0 0 0 0 0 0 0 0 0 0 0 0 0 0 0 0 0 0 0 0 0 0 0 0 0 0
0 0 0 0 0 0 0 0 0 0 0 0 0 0 0 0 0 0 0 0 0 0 0 0 0 0 0 0 0 0 0 0 0 0 0 0 0 0 0 0 0 0 0 0
0 0 0 0 0 0 0 0 0 0 0 0 0 0 0 0 0 0 0 0 0 0 0 0 0 0 0 0 0 0 0 0 0 0 0 0 0 0 0 0 0 0 0 0
0 0 0 0 0 0 0 0 0 0 0 0 0 0 0 0 0 0 0 0 0 0 0 0 0 0 0 0 0 0 0 0 0 0 0 0 0 0 0 0 0 0 0 0
0 0 0 0 0 0 0 0 0 0 0 0 0 0 0 0 0 0 0 0 0 0 0 0 0 0 0 0 0 0 0 0 0 0 0 0 0 0 0 0 0 0 0 0
Wind_Speed
2 6 10 13 11 2 3 5 5 4 1 5 11 17 17 15 13 16 16 16 16 16 16 12 13 14 15 15 16 16 16 15 12 9 8 7 7 6 6 5 7 9 10 11
5 11 10 4 6 4 5 6 8 5 1 5 10 18 18 18 18 18 19 19 19 18 16 13 12 14 16 18 18 18 18 17 16 12 9 6 6 5 5 4 6 8 9 11
15 4 6 8 7 9 9 11 10 7 1 5 7 14 13 11 11 14 17 19 21 20 20 17 14 15 16 17 19 16 18 18 17 14 9 6 4 4 5 6 6 7 8 10
12 5 7 8 11 12 11 9 9 6 6 5 4 10 10 7 10 13 16 18 20 20 19 17 14 14 16 16 15 17 17 17 17 16 14 15 12 11 12 8 7 7 7 9
10 10 10 11 10 13 5 3 4 3 5 8 7 10 14 5 13 16 18 19 20 18 16 15 13 12 12 13 13 14 16 17 17 17 17 16 14 11 8 8 9 8 7 8
2 4 6 5 3 7 9 8 6 2 3 12 11 12 15 9 13 14 13 14 14 12 10 10 8 7 9 10 12 13 16 17 17 18 18 18 17 14 12 12 11 9 6 6
7 5 4 4 8 6 7 7 4 5 6 13 5 12 17 9 12 13 13 11 8 6 6 6 6 6 7 9 12 13 15 16 17 18 18 17 17 16 16 14 13 11 8 7
13 12 13 11 11 13 13 14 12 10 9 8 5 15 12 4 8 12 15 16 13 10 7 6 6 6 6 8 11 13 15 16 16 17 17 16 16 12 11 14 12 13 11 11
12 10 4 9 3 12 11 13 9 5 3 9 14 15 11 7 11 15 17 16 15 11 8 8 7 6 7 8 11 13 14 14 15 16 16 15 15 14 13 13 12 11 10 9
9 6 3 3 2 2 5 8 6 9 8 13 17 19 14 7 15 17 15 14 13 9 7 6 5 5 5 7 9 11 13 14 15 15 15 12 15 15 13 12 13 11 11 10
9 9 4 5 14 15 10 10 9 8 7 9 11 15 6 10 9 9 9 8 8 7 6 4 4 4 4 6 8 10 12 13 14 15 15 15 14 14 13 12 13 12 11 12
9 6 8 10 5 5 12 16 16 11 9 6 9 18 3 5 4 5 7 5 4 4 4 4 4 4 5 7 9 11 12 13 14 14 14 15 14 14 14 14 13 13 12 12
8 7 5 5 5 5 9 11 15 12 7 10 13 19 2 1 3 4 5 5 4 5 5 5 5 5 7 8 9 10 12 13 13 14 15 15 16 16 16 15 13 13 13 13
4 8 12 15 6 8 10 13 16 15 11 17 24 30 17 8 6 6 7 7 7 8 8 8 8 8 9 9 10 11 12 12 13 14 16 17 17 17 16 15 14 14 14 14
5 8 13 18 15 7 9 12 17 22 25 22 27 31 32 18 14 14 14 14 13 13 14 13 12 11 10 10 11 12 12 12 13 15 17 18 16 15 14 14 13 13 13 13
8 7 7 14 18 16 16 19 21 23 24 28 30 35 30 14 15 18 17 16 17 18 18 16 13 12 12 12 12 12 13 13 14 16 17 15 13 13 13 13 12 13 13 12
6 6 7 13 12 10 19 25 26 25 25 22 29 35 25 19 18 18 18 19 20 19 18 17 16 14 12 12 11 12 12 11 13 14 12 11 12 13 13 12 13 14 14 13
9 6 6 8 8 20 16 14 22 26 28 26 25 28 25 21 19 17 17 17 18 17 17 15 14 15 11 10 9 9 8 10 12 12 11 11 13 13 12 13 14 14 12 13
18 14 9 8 15 18 17 11 11 17 24 24 28 30 30 24 18 23 18 16 19 17 13 11 10 11 10 9 7 6 7 9 11 12 12 12 12 12 13 13 14 12 11 11
17 17 14 14 17 15 14 6 7 10 19 13 14 21 23 17 16 19 7 7 9 7 5 6 6 6 7 6 3 5 7 8 10 11 10 10 10 10 12 12 11 9 8 9
6 11 17 20 20 14 8 2 7 11 10 3 5 11 14 15 16 10 3 3 3 3 4 4 4 3 4 3 2 4 5 7 6 5 6 7 8 9 9 8 7 7 7 7
10 9 12 12 16 14 1 2 7 6 5 7 7 8 10 12 10 7 4 3 2 3 3 3 2 3 4 3 1 2 3 2 3 5 6 6 7 7 6 8 7 8 8 8
12 10 7 8 8 3 3 6 7 6 8 8 8 9 8 8 9 7 4 2 2 2 2 2 2 2 4 5 2 1 1 3 5 6 6 6 6 6 7 8 8 8 8 7
7 3 7 8 9 9 9 7 6 6 8 9 9 9 8 8 7 5 3 1 1 2 2 2 2 3 4 5 5 3 2 4 6 7 6 6 7 7 6 6 6 7 7 7
6 4 7 10 10 10 7 5 6 6 6 7 7 7 7 6 5 4 3 1 0 1 2 2 3 3 4 5 5 5 3 4 7 7 6 6 6 6 6 5 4 6 5 6
14 14 14 13 9 8 10 8 7 8 9 7 6 6 5 5 5 3 2 1 1 1 2 3 4 4 4 5 6 6 5 3 6 6 6 5 5 5 5 5 4 4 4 5
Wind_Direction
116 192 210 210 212 207 173 196 225 235 137 231 250 261 266 268 256 259 260 258 254 252 253 238 218 208 207 207 206 206 203 199 192 188 188 193 201 198 201 202 198 191 180 171
163 223 224 155 157 159 184 221 247 256 188 248 274 273 270 262 256 253 256 256 255 254 251 234 217 207 207 207 206 206 205 199 196 196 190 191 184 188 193 189 196 193 184 175
211 201 166 155 171 197 218 231 243 244 207 231 285 277 255 250 250 257 254 255 257 255 254 246 222 213 211 211 208 205 204 200 198 193 182 158 156 159 178 194 194 192 187 181
228 172 150 180 199 197 228 227 236 237 260 259 231 281 270 245 255 253 254 250 249 249 249 250 237 222 216 215 210 209 205 202 198 191 190 188 193 197 198 190 182 176 183 184
211 183 180 196 201 192 192 113 173 217 243 269 223 254 270 239 258 255 252 252 253 253 251 250 243 234 225 214 208 207 205 203 200 198 199 200 205 205 190 176 173 174 179 184
237 185 214 204 113 159 130 107 89 99 227 261 238 232 265 229 246 257 251 250 254 258 258 258 253 236 223 208 203 202 204 205 202 202 204 205 205 197 185 183 179 178 176 179
217 214 199 150 118 140 173 160 200 221 222 252 168 233 260 226 233 251 265 268 264 268 269 262 248 229 214 203 200 200 203 205 204 206 208 209 210 202 200 194 188 181 178 185
216 225 193 190 185 173 195 200 208 230 237 260 190 241 261 241 269 272 269 268 269 265 259 255 251 238 220 206 200 200 204 207 205 207 210 211 210 205 205 201 192 191 192 188
212 232 161 194 196 175 180 218 235 246 271 277 260 257 271 245 258 253 252 256 261 262 254 247 243 234 223 209 203 203 204 208 208 209 210 211 209 206 204 199 198 197 195 182
202 224 168 151 153 265 208 165 157 201 225 249 258 261 261 216 233 242 247 252 261 265 257 245 235 228 222 215 208 206 207 209 209 209 210 211 210 208 204 198 198 196 189 179
206 221 191 170 200 195 171 187 204 206 219 230 259 262 227 218 231 248 259 263 268 267 260 250 240 228 220 214 210 208 209 211 210 209 209 210 210 208 205 202 201 195 188 182
200 215 235 223 211 244 213 209 199 204 217 227 254 266 170 218 247 263 276 280 277 273 267 260 252 239 228 221 216 214 210 211 211 208 208 210 209 206 206 206 201 194 189 187
161 185 219 226 202 194 217 218 216 223 212 215 236 261 110 173 246 250 266 282 280 274 270 259 248 240 237 230 223 220 217 213 209 207 208 210 209 207 208 206 199 194 190 187
178 205 220 236 236 179 205 215 212 209 222 235 239 255 253 241 261 274 273 275 278 275 270 265 257 246 239 234 230 224 222 214 207 206 209 212 211 208 207 204 198 195 191 189
195 227 237 253 258 238 230 229 219 220 228 237 249 255 260 256 254 263 272 278 279 274 271 266 261 258 249 239 233 227 224 215 207 207 212 215 212 208 205 202 197 194 193 193
204 229 237 250 249 247 251 247 238 234 239 245 255 261 263 268 262 263 261 261 263 265 267 267 263 260 253 244 237 228 224 216 207 211 216 214 207 202 200 197 192 191 194 193
213 212 228 253 252 251 246 238 238 239 237 240 248 257 267 265 261 259 260 259 261 262 263 264 266 267 258 250 241 235 227 212 206 214 214 205 200 200 200 194 192 195 196 193
236 234 245 258 247 245 249 244 236 239 243 240 247 259 264 265 268 267 264 264 264 263 264 267 269 273 269 262 250 239 222 206 206 212 211 203 200 201 197 195 198 198 195 195
224 227 236 248 254 259 262 247 224 235 248 243 244 253 262 267 273 271 261 250 257 263 266 272 277 280 280 271 255 224 210 205 207 212 211 204 199 196 194 198 200 197 194 197
221 221 227 237 248 252 263 243 217 227 254 254 245 252 260 264 264 270 271 250 259 267 275 281 287 286 280 282 249 209 210 206 213 213 209 199 192 191 194 197 194 190 190 194
201 217 225 236 246 252 265 236 155 214 255 298 252 257 264 259 257 282 317 298 294 294 300 304 302 299 304 310 225 209 210 217 215 189 177 178 183 185 185 180 176 170 175 176
230 231 227 233 241 244 192 150 217 268 314 298 289 276 271 271 278 282 274 267 280 298 318 326 323 336 348 349 204 196 213 191 142 147 155 161 165 168 163 162 164 168 172 174
229 231 238 233 250 298 267 251 266 281 282 285 286 287 282 276 275 275 272 274 297 319 335 347 5 19 16 11 31 116 96 121 127 129 135 141 143 146 152 159 162 166 172 177
246 255 253 259 265 287 289 284 289 289 283 286 283 281 275 270 275 280 279 287 319 348 356 4 30 41 25 16 25 39 80 119 122 124 127 132 137 142 146 152 160 168 174 178
253 254 255 263 275 285 269 268 286 285 284 286 284 274 265 256 256 254 253 247 259 20 19 39 51 53 34 23 30 27 43 113 119 120 125 130 132 139 145 148 160 172 176 183
245 248 253 261 260 265 277 279 270 274 278 273 272 276 267 242 235 217 210 180 112 89 73 74 67 60 42 35 33 18 12 85 120 123 127 129 133 134 138 137 125 128 138 169